Zurück zum Katalog

COSMOS 619

AktivMilitärLEO
NORAD 6987·PAYLOAD·🇷🇺 Russia

Gestartet Dec 19, 1973 von Plesetsk Cosmodrome

Loading…

Nächste Überflüge (nächste 24 Stunden)

TLE

AktuellSource: Space-Track

Epoche: Sep 14, 2026, 06:29 UTC

1 06987U 73104C   26257.27056632 -.00000012  00000-0  26486-4 0  9992
2 06987  74.0264 104.1093 0040929 215.7698 144.0611 12.52234793410746

Verfolge COSMOS 619 in Echtzeit mit AllMySat

Download on the App Store